www.pogodaiklimat.ru

Погода и климат >> Архив погоды >> Россия >> Свердловская область >> Камышлов


ПОГОДА в Камышлове

  • Прогноз погоды в Камышлове
  • Монитор погоды в Камышлове

АРХИВ ПОГОДЫ в Камышлове

Время (UTC), дата Ветер
(напр.,м/с)
 
Видим.   Явления Облачность Т
(С)
Тd
(С)
f
(%)
Тe
(С)
Тes
(С)
Комфортность P
(гПа)
Po
(гПа)
Тmin
(С)
Tmax
(С)
R
(мм)
R24
(мм)
S
(см)
09 9.07 СЗ 2 50 км 8/8 600 м
[Cu med, cong]
+22.5 +11.3 49 +25 +27 комфорт 1007.7 993.2
12 9.07 СЗ 3 50 км 6/6 600 м
[Cu med, cong]
+24.0 +9.5 40 +25 +27 комфорт 1007.9 993.4
15 9.07 ЮЗ 2 50 км 3/0
[Ac trans]
+22.9 +9.3 42 +24 +25 комфорт 1008.1 993.5 +24.5
18 9.07 Ю 1 4000 м 3/0
[Ac trans]
+18.1 +10.9 63 +19 +19 1008.9 994.1
21 9.07 Ю 2 4000 м 4/0
[Ac trans]
+14.9 +9.7 71 +15 +15 1008.6 993.7
00 10.07 ЮВ 2 20 км 9/4 600 м
[Sc Ac trans]
+13.0 +9.1 77 +12 +12 1008.0 993.0
03 10.07 Ю 3 50 км 8/6 600 м
[Sc Ac trans]
+18.1 +10.3 60 +18 +19 1007.2 992.4 +12.9
06 10.07 Ю 3 50 км {ливн. осадки} 8/5 600 м
[Cb cap Ci sp]
+21.6 +12.0 54 +24 +29 комфорт 1006.0 991.5 +17.6
09 10.07 Ю 3
{12}
50 км 9/9 600 м
[Sc]
+25.3 +12.0 43 +27 +28 жарко 1004.8 990.4
12 10.07 Ю 3
{10}
50 км 10/10 600 м
[Sc]
+25.3 +13.4 48 +27 +27 жарко 1004.3 989.9
15 10.07 Ю 4
{10}
50 км 10/10 600 м
[Sc]
+23.6 +12.7 50 +26 +26 жарко 1004.0 989.6 +26.1
18 10.07 Ю 1 4000 м 8/8 600 м
[Sc]
+20.1 +12.8 63 +23 +23 комфорт 1004.0 989.4
21 10.07 ЮВ 3 4000 м 6/6 600 м
[Sc]
+18.0 +13.4 74 +18 +18 1003.2 988.5
00 11.07 ЮЗ 4 20 км 10/0
[Ac As]
+17.7 +13.3 75 +17 +17 1003.8 989.0
03 11.07 ЮВ 3 50 км в посл. час ливневой дождь 8/6 600 м
[Cb cap Ac trans]
+17.5 +15.5 88 +17 +19 1003.3 988.6 +16.1 0.8
06 11.07 ЮЗ 4 50 км {ливн. осадки} 6/6 600 м
[Cb cap Ac trans]
+23.3 +15.7 62 +28 +31 душно 1004.2 989.8
09 11.07 З 5-11
{11}
50 км 4/4 600 м
[Cb cap]
+26.4 +9.2 34 +27 +31 жарко 1005.3 990.9
12 11.07 ЮЗ 4 50 км 4/4 600 м
[Cb cap]
+27.0 +8.6 31 +27 +30 жарко 1006.1 991.8
15 11.07 З 2 50 км 4/0
[Ac trans]
+25.0 +9.0 36 +26 +26 жарко 1007.5 993.0
18 11.07 С 1 4000 м 6/6 600 м
[Cb cap]
+18.7 +11.1 61 +20 +20 1009.3 994.6
21 11.07 штиль 0 4000 м 4/4 600 м
[Cb cap]
+15.7 +11.9 78 +16 +16 1010.9 995.9
00 12.07 С 1 50 км 4/4 600 м
[Cu med, cong]
+12.9 +10.7 86 +13 +13 1011.8 996.7
03 12.07 СЗ 1 50 км 4/0
[Ac trans]
+17.6 +12.1 70 +19 +23 1012.5 997.6 +12.4
06 12.07 С 1 50 км 6/0
[Ac trans Ci fib]
+24.9 +10.2 40 +26 +37 жарко 1012.6 998.1
09 12.07 С 1 50 км 8/0
[Ac trans Ci fib]
+26.4 +9.6 35 +27 +38 жарко 1012.8 998.3
12 12.07 С 2 50 км 8/0
[Ac trans Ci fib]
+28.4 +8.6 29 +28 +33 жарко 1012.5 998.2
15 12.07 СВ 2 50 км 6/0
[Ac trans Ci fib]
+24.4 +15.2 56 +27 +28 жарко 1013.1 998.6 +28.6
18 12.07 СВ 4 4000 м 4/0
[Ac trans]
+18.1 +13.9 76 +18 +18 1013.4 998.6
21 12.07 В 3 4000 м ясно +18.9 +13.9 73 +20 +20 1012.9 998.2
00 13.07 В 4 50 км ясно +19.2 +14.2 73 +21 +21 комфорт 1012.0 997.2
03 13.07 ЮВ 4 50 км ясно +23.3 +17.4 69 +29 +32 душно 1010.7 996.2 +18.0
06 13.07 ЮВ 4 50 км 3/0
[Ci fib]
+30.2 +14.3 38 +32 +40 жарко 1009.8 995.7
09 13.07 Ю 7-12
{13}
50 км 6/0
[Ci fib]
+33.4 +11.2 26 +33 +37 жарко 1008.9 994.8
12 13.07 ЮВ 7-12
{14}
50 км 4/0
[Ci fib]
+33.5 +9.9 24 +33 +34 жарко 1008.5 994.5
15 13.07 ЮВ 4
{13}
50 км 6/0
[Ci fib]
+29.5 +11.5 33 +30 +30 жарко 1009.2 995.0 +34.0
18 13.07 ЮВ 5 4000 м 3/0
[Ci fib]
+24.5 +11.2 43 +26 +26 жарко 1010.0 995.5
21 13.07 ЮВ 2 4000 м 3/0
[Ci fib]
+20.2 +11.8 58 +23 +23 комфорт 1010.7 996.0
00 14.07 ЮВ 4 50 км 3/0
[Ci fib]
+18.8 +11.8 64 +19 +20 1010.8 996.0
03 14.07 ЮВ 4 50 км 3/0
[Ci fib]
+23.1 +12.1 50 +26 +29 жарко 1010.1 995.6 +18.7
06 14.07 ЮВ 5
{10}
50 км ясно +28.4 +12.4 37 +30 +36 жарко 1009.4 995.1
09 14.07 Ю 6-12
{12}
50 км ясно +31.3 +9.9 27 +31 +36 жарко 1008.8 994.7
12 14.07 ЮВ 4
{12}
50 км 3/0
[Ci fib]
+31.6 +11.0 28 +32 +36 жарко 1008.5 994.4
15 14.07 ЮВ 3 50 км 4/0
[Ci fib]
+28.6 +13.1 38 +30 +30 жарко 1008.4 994.2 +31.7
18 14.07 ЮВ 4 4000 м 3/0
[Ci fib]
+23.6 +13.8 54 +26 +26 жарко 1008.5 994.0
21 14.07 ЮВ 3 4000 м 6/0
[Ac trans]
+20.8 +13.2 62 +24 +24 комфорт 1008.2 993.6
00 15.07 ЮВ 3 20 км 8/0
[Ac trans]
+20.4 +13.4 64 +23 +23 комфорт 1007.8 993.2
03 15.07 ЮВ 4 50 км 3/0
[Ci fib]
+23.6 +15.0 59 +26 +29 жарко 1006.8 992.4 +20.2
06 15.07 ЮВ 5 50 км 3/0
[Ci fib]
+29.3 +14.2 40 +31 +38 жарко 1005.3 991.2
09 15.07 ЮВ 6-11
{12}
50 км 8/0
[Cc]
+32.0 +11.7 29 +32 +37 жарко 1003.2 989.2
12 15.07 ЮВ 6-10
{14}
50 км 10/0
[Ac trans Cc]
+30.0 +11.4 32 +31 +32 жарко 1001.5 987.4
15 15.07 В 6-11
{12}
50 км 3/0
[Ac trans]
+28.3 +14.4 43 +31 +31 душно 999.3 985.2 +32.6
18 15.07 В 7-12
{12}
4000 м 10/10 600 м
[Sc]
+26.6 +15.3 50 +29 +29 жарко 998.1 983.9
21 15.07 ЮВ 5
{13}
4000 м 10/10 600 м
[Sc]
+24.6 +15.7 58 +28 +28 душно 997.3 983.0
00 16.07 Ю 3 20 км 6/3 600 м
[Sc Cc]
+19.9 +12.4 62 +22 +22 комфорт 998.3 983.8
03 16.07 ЮЗ 3 50 км ясно +19.1 +11.2 60 +20 +24 999.7 985.1 +18.1
06 16.07 ЮЗ 4 50 км 10/10 600 м
[Sc]
+19.1 +10.7 58 +20 +20 1001.2 986.6 +18.8

 

Местоположение метеостанции Камышлов (Свердловская область, Россия): широта 56.85 долгота 62.72 высота над уровнем моря 127 м.

В архиве по умолчанию представлена погода в Камышлове за последнюю неделю. Архивные данные за месяц целиком и за предыдущие месяцы, начиная с января 2011 года, Вы можете получить, выбрав интересующий диапазон дат из раскрывающегося списка и нажав кнопку "Ввод!".


*Определитесь, кто Вы:
робот инопланетянин человек

Внимание! Время в таблицах - всемирное. Для получения местного времени необходимо прибавить поправку, которая равна 5 ч.

Смотрите также архив погоды в соседних городах и на ближайших метеорологических станциях:

Погода в Бутке (Свердловская область, Россия) (66 км)
Погода в Далматово (Курганская область, Россия) (66 км)
Погода в Каменск-Уральском (Свердловская область, Россия) (70 км)
Погода в Артемовском (Свердловская область, Россия) (75 км)
Погода в Ирбите (Свердловская область, Россия) (87 км)
Погода в Верхнем Дуброво (Свердловская область, Россия) (101 км)
Погода в Шадринске (Курганская область, Россия) (104 км)
Погода в Тугулыме (Свердловская область, Россия) (121 км)
Погода в Сысерти (Свердловская область, Россия) (122 км)
Погода в Шатрово (Курганская область, Россия) (123 км)

Пояснения к столбцам:

Ветер - указаны скорость ветра в м/с - средняя за 10 мин, порывы в срок и между сроками (в фигурных скобках) и направление, откуда дует ветер: С - северный, СВ - северо-восточный, В - восточный, ЮВ - юго-восточный, Ю - южный, ЮЗ - юго-западный, З - западный, СЗ - северо-западный.
Видимость - горизонтальная дальность видимости в метрах или километрах. При видимости от 1 до 10 км при отсутствии осадков обычно наблюдается дымка, при ухудшении видимости до 1 км и менее - туман. В сухую погоду видимость может ухудшаться дымом, пылью или мглою.
Явления - указаны атмосферные явления, наблюдавшиеся в срок или в последний час перед сроком; фигурными скобками обозначены явления, наблюдавшиеся между сроками (за 1-3 часа до срока); квадратными скобками обозначены град или гололедные отложения с указанием их диаметра в мм.
Облачность - указаны через наклонную черту общая и нижняя облачность в баллах и высота нижней границы облаков в метрах; квадратными скобками обозначены формы облаков: Ci - перистые, Cs - перисто-слоистые, Cc - перисто-кучевые, Ac - высококучевые, As - высокослоистые, Sc - слоисто-кучевые, Ns - слоисто-дождевые, Cu - кучевые, Cb - кучево-дождевые. Подробнее классификацию облаков см. в Атласе облаков (PDF).
T - Температура воздуха - температура, измеренная на высоте 2 м над землей.
Td - Температура точки росы - температура, при понижении до которой содержащийся в воздухе водяной пар достигнет насыщения.
f - Относительная влажность воздуха - влажноcть воздуха, измеренная на высоте 2 м над землей.
Te - Эффективная температура - температура, которую ощущает одетый по сезону человек в тени. Характеристика душности погоды. При расчете учитывается влияние влажности воздуха и скорости ветра на теплоощущения человека.
Tes - Эффективная температура на солнце - температура, которую ощущает человек, с поправкой на солнечный нагрев. Характеристика знойности погоды. Зависит от высоты солнца над горизонтом, облачности и скорости ветра. Ночью, в пасмурную погоду, а также при ветре 12 м/с и более поправка равна нулю.
P - Атмосферное давление - приведенное к уровню моря атмосферное давление.
Po - Атмосферное давление - измеренное на уровне метеостанции атмосферное давление.
Tmin - Минимальная температура - минимум температуры воздуха на высоте 2 м над землей.
Tmax - Максимальная температура - максимум температуры воздуха на высоте 2 м над землей.
R - Количество осадков - Количество выпавших осадков за период времени, мм. При наведении курсора мыши на число - период времени, за который выпало указанное количество осадков.
R24 - Количество осадков - Количество выпавших осадков за 24 часа, мм.
S - Снежный покров - Высота снежного покрова, см. При наведении курсора мыши на число - состояние снежного покрова и степень покрытия местности в баллах.